Location: Washington
(38.8950°N, 77.0370°W)
Time: 17:32:01
(UTC-04:00)

ISS - All Passes

Search period start: 27 May 2018 00:00
Search period end: 06 June 2018 00:00
Orbit: 402 x 407 km, 51.6° (Epoch: 27 May)

Date Brightness Start Highest point End Pass type
(mag) Time Alt. Az. Time Alt. Az. Time Alt. Az.
27 May - 00:35:36 10° NNW 00:37:33 15° NNE 00:39:30 10° ENE visible
27 May - 02:11:15 10° NW 02:14:30 73° NE 02:17:45 10° ESE visible
27 May - 03:49:55 10° WSW 03:50:32 10° SW 03:51:11 10° SW night (unlit)
27 May - 18:50:12 10° SSW 18:53:19 43° SE 18:56:27 10° ENE daylight
27 May - 20:27:13 10° W 20:29:54 23° NNW 20:32:37 10° NNE daylight
27 May - 23:43:52 10° N 23:45:03 11° NNE 23:46:15 10° NE visible
28 May - 01:19:10 10° NW 01:22:15 38° NNE 01:25:20 10° ESE visible
28 May - 02:56:03 10° W 02:58:34 21° SW 03:01:04 10° S night (unlit)
28 May - 17:58:41 10° S 18:01:15 21° SE 18:03:49 10° E daylight
28 May - 19:34:30 10° WSW 19:37:34 37° NNW 19:40:39 10° NE daylight
28 May - 21:13:38 10° NW 21:14:47 11° NNW 21:15:56 10° N visible
29 May - 00:27:11 10° NNW 00:29:55 24° NNE 00:32:38 10° E visible
29 May - 02:03:24 10° WNW 02:06:30 41° SW 02:09:35 10° SSE night (unlit)
29 May - 17:08:19 10° SE 17:09:15 11° SE 17:10:10 10° ESE daylight
29 May - 18:42:02 10° WSW 18:45:17 70° NW 18:48:33 10° NE daylight
29 May - 20:20:19 10° NW 20:22:15 15° NNW 20:24:12 10° NNE daylight
29 May - 23:35:17 10° NNW 23:37:29 16° NNE 23:39:41 10° ENE visible
30 May - 01:11:04 10° NW 01:14:21 87° SW 01:17:36 10° SE visible
30 May - 17:49:53 10° SW 17:53:05 56° SE 17:56:19 10° ENE daylight
30 May - 19:27:15 10° WNW 19:29:47 20° NNW 19:32:19 10° NNE daylight
30 May - 22:43:28 10° NNW 22:44:58 12° NNE 22:46:28 10° NE visible
31 May - 00:18:54 10° NW 00:22:05 47° NE 00:25:15 10° ESE visible
31 May - 01:56:09 10° W 01:58:17 16° SW 02:00:25 10° S night (unlit)
31 May - 16:58:07 10° SSW 17:00:57 27° SE 17:03:47 10° ENE daylight
31 May - 18:34:24 10° W 18:37:22 31° NNW 18:40:20 10° NE daylight
31 May - 20:13:53 10° NNW 20:14:40 11° N 20:15:27 10° N daylight
31 May - 21:51:58 10° N 21:52:23 10° N 21:52:49 10° NNE visible
31 May - 23:26:51 10° NNW 23:29:44 28° NNE 23:32:36 10° E visible
01 Jun - 01:03:15 10° WNW 01:06:13 32° SW 01:09:09 10° SSE visible
01 Jun - 16:07:05 10° SSE 16:08:53 14° SE 16:10:42 10° E daylight
01 Jun - 17:41:49 10° WSW 17:45:01 55° NW 17:48:16 10° NE daylight
01 Jun - 19:20:24 10° NW 19:22:05 13° NNW 19:23:46 10° NNE daylight
01 Jun - 22:34:53 10° NNW 22:37:17 19° NNE 22:39:41 10° ENE visible
02 Jun - 00:10:48 10° NW 00:14:03 67° SW 00:17:16 10° SE visible
02 Jun - 16:49:30 10° SW 16:52:45 74° SE 16:56:01 10° NE daylight
02 Jun - 18:27:12 10° WNW 18:29:33 18° NNW 18:31:53 10° NNE daylight
02 Jun - 21:42:59 10° NNW 21:44:45 14° NNE 21:46:31 10° NE visible
02 Jun - 23:18:32 10° NW 23:21:47 60° NE 23:25:00 10° ESE visible
03 Jun - 00:56:20 10° W 00:57:53 13° SW 00:59:25 10° SSW night (unlit)
03 Jun - 15:57:32 10° SSW 16:00:33 35° SE 16:03:34 10° ENE daylight
03 Jun - 17:34:14 10° W 17:37:04 26° NNW 17:39:54 10° NNE daylight
03 Jun - 19:14:17 10° NNW 19:14:26 10° N 19:14:34 10° N daylight
03 Jun - 20:51:14 10° N 20:52:09 11° NNE 20:53:04 10° NNE daylight
03 Jun - 22:26:25 10° NW 22:29:25 33° NNE 22:32:24 10° E visible
04 Jun - 00:03:03 10° WNW 00:05:48 25° SW 00:08:32 10° S visible
04 Jun - 15:06:08 10° S 15:08:25 18° SE 15:10:42 10° E daylight
04 Jun - 16:41:30 10° WSW 16:44:39 44° NW 16:47:49 10° NE daylight
04 Jun - 18:20:23 10° NW 18:21:48 12° NNW 18:23:13 10° N daylight
04 Jun - 21:34:22 10° NNW 21:36:58 21° NNE 21:39:33 10° ENE visible
04 Jun - 23:10:26 10° WNW 23:13:37 51° SW 23:16:47 10° SE visible
05 Jun - 15:49:02 10° SW 15:52:19 86° NNW 15:55:36 10° NE daylight
05 Jun - 17:27:04 10° WNW 17:29:12 16° NNW 17:31:20 10° NNE daylight
05 Jun - 20:42:24 10° NNW 20:44:25 15° NNE 20:46:25 10° ENE daylight
05 Jun - 22:18:05 10° NW 22:21:21 76° NE 22:24:36 10° SE visible
